Theta_e
323 322 322 322 320 319 316 312 309 306 305 305 305 305 305 304 303 303 303 307 311 312 313 311 313 314 315 316 318 318 318 318 321 323 326 326 329 329 329 327 329 330 330 331 330 331 331 332 331 334 333 340 340 336
324 323 322 322 321 320 319 314 312 307 305 305 305 305 305 304 303 303 303 303 304 308 310 306 305 307 308 310 313 314 315 315 317 323 327 330 331 329 328 330 328 331 336 335 336 335 329 330 330 331 342 341 341 342
323 323 322 322 322 321 320 318 316 310 307 305 305 305 304 304 303 303 303 303 306 308 308 311 312 311 313 313 315 313 314 315 316 317 324 327 329 329 331 328 328 329 327 327 330 335 334 335 333 330 339 340 341 341
323 324 324 323 322 321 321 319 318 314 308 306 305 305 305 304 303 303 303 302 305 308 310 310 312 311 312 314 315 315 316 315 316 317 324 326 328 326 327 328 328 326 327 328 328 336 338 340 342 341 337 340 341 344
322 323 323 323 323 322 322 321 319 318 311 307 305 305 305 304 304 303 303 312 309 308 311 311 310 313 311 320 319 320 320 316 318 317 322 325 324 325 325 327 327 328 328 335 337 335 338 339 339 344 344 348 355 353
315 320 323 322 322 322 321 321 321 319 313 308 305 305 305 304 304 302 309 313 312 310 310 312 311 314 320 324 322 322 321 320 320 321 323 323 323 323 326 329 326 326 326 332 332 332 335 336 335 347 353 357 359 358
313 316 321 322 321 322 322 321 321 319 315 308 306 306 305 304 307 310 311 312 313 312 312 312 314 318 319 322 323 322 320 320 319 324 324 324 323 322 326 326 325 325 327 328 332 335 335 337 340 345 348 353 355 354
308 312 318 319 320 320 321 321 320 320 315 307 306 305 305 307 313 314 315 313 310 311 311 313 313 316 321 321 324 322 323 324 324 323 323 322 322 324 327 324 324 326 329 334 336 333 338 337 333 335 337 336 351 350
307 308 310 316 318 319 320 321 320 319 313 306 306 308 310 313 314 316 315 315 314 313 312 312 316 319 320 322 322 323 322 324 322 324 323 322 325 329 330 331 327 327 328 337 336 334 334 332 333 332 341 347 346 344
307 308 311 315 316 317 319 320 319 316 307 308 310 313 318 318 315 311 313 313 311 311 310 310 313 316 318 320 322 322 320 321 325 323 323 325 329 325 327 329 327 328 334 331 335 336 333 330 331 334 337 345 343 345
307 311 313 315 315 318 319 319 316 311 307 310 310 310 310 311 308 315 316 313 312 312 311 312 315 318 320 323 324 323 323 322 329 333 333 331 325 327 326 327 332 334 335 332 336 335 337 340 340 342 344 345 345 345
307 311 316 317 318 319 318 317 310 305 306 306 304 304 308 312 312 316 321 320 319 321 320 321 322 322 322 324 324 323 327 327 334 330 334 335 329 326 329 330 335 335 336 336 337 336 336 338 340 342 342 342 343 343
308 315 317 317 316 316 316 313 307 305 305 305 311 312 313 315 316 322 323 323 323 321 320 321 321 322 323 325 326 327 327 329 328 334 336 334 329 333 337 334 333 333 334 335 336 337 337 338 339 341 341 341 341 341
313 316 316 316 316 316 314 309 304 305 303 310 314 310 316 318 319 322 323 323 320 321 321 321 321 323 324 327 328 328 330 329 333 336 334 333 331 335 336 335 334 336 334 335 336 337 339 340 340 340 340 340 341 340
315 315 315 315 316 315 310 304 304 303 308 313 313 312 316 316 317 318 319 320 322 321 321 321 322 324 327 328 329 328 331 332 329 332 333 332 332 334 335 335 336 335 335 335 335 337 338 338 338 338 338 338 338 338
312 311 313 313 312 309 304 304 303 304 310 312 312 313 315 315 316 318 319 319 320 321 321 322 325 328 330 329 331 330 332 332 331 329 330 332 333 335 334 334 335 335 333 333 334 335 335 334 336 336 336 336 336 336
310 311 311 309 308 304 304 303 308 309 311 313 313 313 313 314 314 314 315 318 320 320 325 324 327 329 328 330 327 324 326 325 324 327 332 333 334 333 332 333 333 332 329 331 332 332 333 334 334 333 333 334 334 334
309 310 309 306 305 303 303 305 310 312 313 312 313 312 313 313 313 315 318 320 320 321 321 324 323 327 328 329 327 323 323 323 325 328 331 332 332 332 332 328 327 327 324 323 323 324 327 327 326 327 326 325 330 332
308 309 307 304 303 308 310 309 307 311 312 313 313 314 315 314 314 315 315 317 318 319 320 322 326 327 327 326 327 325 325 323 323 330 331 331 332 328 330 332 330 330 328 327 327 327 327 327 326 326 325 325 323 325
305 306 305 305 305 305 309 310 312 312 313 314 313 314 315 315 315 315 317 319 319 319 322 325 327 324 323 322 325 328 327 325 327 330 330 328 327 328 331 331 330 329 326 325 325 327 328 326 325 323 323 323 323 326
304 305 304 304 303 304 309 312 312 312 313 314 314 314 316 316 316 316 318 319 318 319 322 322 324 324 324 326 331 328 330 330 330 330 331 331 332 331 326 328 330 328 327 326 326 327 327 325 325 325 324 325 325 324
304 303 303 303 305 306 308 308 310 311 312 313 314 314 315 317 318 318 319 319 319 320 320 320 324 323 327 328 327 328 331 330 327 325 328 331 329 329 329 326 327 328 325 327 327 327 325 324 323 323 324 323 323 324
305 305 307 306 308 309 308 309 310 310 311 313 314 314 315 315 316 317 320 319 320 319 320 320 323 324 326 325 323 331 331 329 328 330 330 330 331 328 327 326 325 326 326 327 325 325 323 321 321 320 320 319 319 320
304 306 308 310 309 308 309 311 311 313 313 314 315 317 318 319 320 321 322 320 320 321 322 322 324 323 324 323 321 326 329 331 326 325 327 329 329 328 328 327 326 325 325 325 325 324 322 321 319 318 317 317 318 317
306 305 308 308 310 310 311 313 313 314 315 316 317 317 319 320 324 323 324 323 322 321 324 324 323 324 325 325 326 329 328 331 326 325 326 325 326 327 328 326 325 326 325 326 325 323 322 320 318 318 312 311 311 311
306 307 307 310 309 312 314 314 315 315 315 316 316 317 320 322 322 324 326 323 324 323 322 324 325 325 327 328 327 326 327 330 328 327 327 327 328 326 325 325 325 325 325 325 324 323 322 321 320 315 314 313 314 315
307 310 309 309 310 312 313 313 314 316 316 316 318 320 320 321 323 325 323 326 326 324 323 327 326 326 326 327 326 325 327 328 328 327 326 328 325 325 325 326 327 324 324 325 324 322 321 318 315 316 317 318 317 315
308 309 310 310 311 311 313 315 316 316 316 316 317 320 322 323 324 320 321 323 326 326 325 325 326 325 325 327 325 326 326 327 327 325 327 327 326 326 325 324 323 323 324 324 322 321 321 319 316 315 316 317 317 316
309 311 310 311 311 312 312 312 314 315 316 316 321 324 323 322 321 320 321 320 323 321 322 324 325 325 326 326 327 327 329 326 326 326 327 327 326 325 323 322 322 322 323 323 322 322 321 319 319 318 318 317 317 317
310 310 311 311 312 313 313 313 313 313 315 316 320 320 318 317 319 323 323 322 321 322 322 323 324 325 326 328 327 327 327 325 327 326 326 327 326 324 324 323 322 321 322 322 321 321 320 319 320 320 320 319 319 318
310 311 311 311 311 312 312 312 313 313 313 314 316 318 319 320 319 322 321 320 321 322 323 323 324 324 325 327 327 326 327 327 328 327 326 326 326 325 324 323 322 321 322 321 320 320 321 321 321 321 320 320 320 320
310 311 311 312 312 312 313 313 313 313 313 314 315 315 317 318 318 319 320 321 322 322 322 323 323 323 325 325 328 328 328 328 328 325 325 326 325 325 324 323 323 322 321 321 321 321 321 322 322 321 320 321 321 320
311 311 312 312 313 313 313 313 314 315 314 314 314 316 316 317 318 318 318 320 321 322 322 323 324 324 326 327 328 328 327 326 325 325 325 325 326 323 323 323 322 322 321 321 322 322 322 323 322 322 322 321 322 322
Wind_Speed
23 23 24 24 24 25 24 23 23 23 23 23 23 23 24 24 23 23 18 4 11 21 38 38 24 22 22 23 11 14 12 9 12 9 8 10 9 10 10 11 8 8 8 11 10 11 19 18 17 3 13 12 4 14
25 24 23 23 23 24 24 23 23 22 22 23 23 23 23 23 23 24 25 18 16 18 29 43 47 47 44 45 35 22 15 22 8 4 5 4 4 4 7 6 6 4 6 5 4 13 17 41 35 39 9 2 11 12
28 27 25 25 24 24 25 24 25 23 22 23 23 24 24 24 24 23 28 26 19 21 33 23 23 28 21 28 33 27 27 28 27 22 6 3 6 2 2 4 6 2 11 4 14 15 27 44 58 31 5 4 5 12
29 30 29 27 27 26 26 26 25 24 22 22 23 25 25 25 25 26 31 29 15 11 8 14 25 39 32 26 25 35 41 32 24 22 8 4 4 8 4 6 5 3 8 7 22 23 34 33 9 11 17 13 11 12
31 30 31 28 28 27 26 26 26 26 23 22 23 25 26 27 28 30 26 13 6 12 7 24 49 13 28 22 20 15 23 36 23 17 8 7 9 10 11 9 8 5 5 5 11 28 27 34 46 10 18 25 31 33
32 30 30 30 26 26 27 26 26 27 23 22 23 25 26 27 26 23 6 4 3 12 8 5 19 24 20 23 7 7 23 13 12 23 9 13 22 14 4 5 6 16 26 26 23 35 40 43 46 12 24 33 31 36
30 29 28 28 28 25 26 26 25 27 23 20 22 24 26 22 20 11 7 5 4 4 6 8 8 7 17 13 13 10 9 16 20 21 15 13 15 10 4 15 14 22 27 35 36 31 35 23 18 3 18 6 41 35
30 30 30 29 27 26 24 25 24 26 23 20 22 24 23 19 15 9 7 8 16 9 6 4 6 9 11 5 2 4 3 5 10 6 3 5 7 7 6 15 27 23 21 29 24 19 5 8 9 15 29 56 48 36
29 29 27 27 26 23 25 24 24 24 20 18 19 19 20 6 4 6 15 14 11 12 4 5 3 5 7 4 5 4 2 3 5 3 4 2 2 5 8 10 13 10 14 9 17 24 14 11 5 23 26 19 42 39
27 25 24 23 22 23 24 22 21 20 15 13 13 5 3 2 9 18 5 2 5 5 5 6 6 6 11 8 4 4 2 2 3 8 9 5 1 13 15 15 14 18 2 17 16 12 5 14 18 46 61 29 38 38
24 21 21 21 21 22 20 17 16 15 7 7 4 6 7 5 11 3 3 4 5 4 7 9 12 8 12 4 2 4 2 3 3 2 4 4 3 8 12 18 9 4 6 16 20 20 17 18 13 34 34 35 36 34
22 19 22 23 21 20 17 13 10 9 7 8 12 17 10 3 6 3 4 6 6 4 5 6 13 18 11 7 7 6 3 3 4 6 3 4 6 28 24 28 14 9 18 19 14 12 8 13 21 25 27 28 30 30
19 19 18 12 12 12 10 9 8 9 8 7 3 3 4 5 3 5 4 3 2 6 7 10 13 17 5 4 4 2 3 5 18 3 4 1 13 5 7 13 16 17 19 21 20 18 14 18 16 20 23 22 23 24
15 14 11 11 12 12 11 7 7 5 4 3 6 4 6 6 6 5 4 5 8 8 12 13 13 4 5 2 1 2 3 3 5 4 3 1 6 4 11 10 14 19 14 17 18 17 19 22 24 24 22 21 21 23
14 13 13 14 13 12 9 8 7 6 3 6 6 4 6 15 21 17 6 11 6 10 9 10 9 6 4 3 2 3 3 1 3 3 3 6 5 7 14 14 16 15 18 18 14 17 19 20 21 22 20 20 19 17
13 14 16 13 11 11 10 10 8 6 4 6 8 8 15 12 14 8 7 6 4 6 9 7 4 4 2 3 3 3 6 2 1 1 4 4 6 11 13 13 15 14 16 21 20 16 16 18 20 20 16 16 16 16
12 13 10 8 12 12 13 10 5 6 7 6 9 19 24 19 15 17 19 4 3 5 1 2 4 4 3 3 3 4 4 2 11 13 6 1 9 13 14 14 15 15 17 16 14 16 18 20 20 18 18 13 16 16
12 8 7 10 13 12 10 11 5 7 10 13 13 20 21 20 19 17 9 4 2 2 4 2 3 2 3 3 4 2 6 16 29 26 8 5 8 7 10 14 16 16 20 23 24 22 12 11 10 12 15 12 8 7
14 10 11 12 14 9 5 8 10 7 10 16 19 22 21 19 17 14 14 7 6 6 7 3 2 1 0 9 7 10 8 13 31 13 5 7 7 6 10 12 10 10 14 15 14 12 11 15 15 9 12 9 9 5
11 12 12 12 14 6 4 6 10 7 7 9 16 23 23 18 14 16 14 6 5 3 3 3 4 3 6 10 9 5 14 11 4 4 7 6 5 6 6 9 9 8 10 11 14 12 9 12 13 11 9 6 4 6
11 12 10 9 9 9 5 6 10 10 12 12 17 19 14 14 16 18 16 9 6 5 4 10 7 9 11 8 7 6 4 4 7 4 6 6 4 2 4 5 6 7 7 6 9 9 9 10 10 8 4 8 6 6
11 12 8 9 5 5 8 9 9 12 8 15 20 18 13 12 13 10 10 11 9 12 15 18 12 7 4 2 3 5 4 4 6 7 8 6 4 2 5 7 5 6 9 9 7 7 6 6 4 1 6 5 7 10
14 14 3 7 7 6 9 7 6 5 4 5 11 5 6 12 15 8 4 9 14 15 13 17 14 12 6 2 4 2 1 2 7 6 8 6 3 5 5 5 6 9 10 16 11 8 11 8 9 13 11 11 12 10
13 6 4 6 9 5 6 10 9 6 8 8 4 8 7 2 5 3 4 6 14 12 7 6 10 4 6 5 6 5 5 4 5 4 3 6 7 6 3 3 7 7 9 6 3 7 10 13 14 18 19 20 21 21
3 5 5 7 7 7 4 8 14 10 12 11 10 7 2 4 1 2 5 3 7 6 5 11 6 8 9 6 3 5 6 6 4 4 4 6 4 5 5 11 12 10 3 4 6 9 10 14 16 11 13 17 16 16
6 6 7 8 6 6 5 4 8 10 10 11 6 5 4 3 3 3 1 1 1 4 6 4 10 11 4 4 4 5 10 10 8 9 2 3 2 4 7 7 7 7 1 3 4 8 13 13 9 14 19 18 13 15
4 6 12 10 9 11 8 9 12 5 7 5 3 2 1 2 1 2 2 3 1 1 8 7 5 1 3 3 3 9 4 4 10 7 4 9 8 8 6 4 2 7 1 4 7 15 14 11 12 17 16 11 9 10
8 6 9 13 13 11 11 10 7 3 4 5 3 3 3 1 1 2 2 5 5 4 1 2 4 1 5 4 12 3 3 11 8 11 17 17 14 10 9 6 10 9 7 9 11 15 14 11 9 13 10 10 12 8
8 8 11 14 13 9 12 11 12 10 16 22 2 4 5 4 4 3 2 4 8 9 6 2 3 2 3 6 5 9 6 10 9 14 13 14 12 12 7 11 8 8 12 12 13 11 11 11 10 8 7 9 6 3
15 14 13 13 13 12 16 10 10 14 16 7 3 5 3 2 7 11 7 5 4 3 5 6 2 3 5 5 6 5 4 10 3 8 12 17 16 13 12 10 4 13 13 12 10 12 11 13 12 11 9 5 1 1
10 13 16 16 16 16 14 15 17 14 12 13 8 7 7 4 5 9 9 4 7 7 5 3 5 6 5 2 6 9 7 6 9 6 11 9 13 12 10 7 9 10 8 8 11 13 11 10 6 6 4 3 2 2
15 16 15 12 13 14 12 11 13 12 13 13 9 9 7 8 7 6 4 10 8 8 9 7 8 7 4 6 7 3 5 7 8 12 7 20 7 11 11 10 10 11 10 9 8 8 9 7 8 2 3 5 5 4
11 13 12 11 7 10 11 10 9 8 13 12 12 13 12 12 9 6 7 11 13 12 7 6 8 8 6 7 6 6 8 4 11 14 19 15 14 13 12 13 15 11 9 9 8 4 3 2 8 2 8 8 8 7
Wind_Direction
325 329 333 335 336 335 336 337 336 338 339 339 340 342 344 342 339 335 336 332 318 299 289 285 281 290 285 281 274 303 329 292 277 259 259 273 276 275 288 261 263 259 257 262 271 249 257 259 268 240 244 268 209 244
314 316 319 322 326 327 327 329 331 331 332 333 333 334 335 335 333 323 320 314 294 286 268 283 280 277 265 259 265 265 256 283 294 355 334 333 343 326 326 294 334 282 44 304 332 285 265 274 276 281 68 277 92 96
304 305 309 310 313 318 321 323 327 325 325 327 327 328 328 328 328 319 311 316 324 291 301 285 292 306 296 288 280 241 257 251 261 267 274 267 250 289 309 314 323 290 7 343 333 318 313 306 284 252 170 137 30 118
296 299 300 303 306 309 315 318 321 321 320 322 323 323 322 321 322 317 315 313 288 279 291 285 312 306 299 290 283 250 250 248 265 259 251 250 245 246 231 240 207 222 316 327 289 288 325 285 266 212 181 156 138 112
289 290 292 294 295 298 303 310 317 320 317 318 319 318 317 318 319 319 324 326 285 225 278 295 306 344 318 321 300 282 260 231 244 256 241 231 249 263 267 274 265 236 252 271 285 294 285 285 294 279 133 120 115 121
285 285 289 292 290 294 299 304 312 315 316 317 316 315 314 316 319 328 305 353 293 237 275 306 303 322 344 355 303 283 257 274 289 262 242 255 243 270 250 263 233 217 243 269 280 286 290 279 295 47 114 115 115 118
279 279 282 285 290 289 294 299 304 309 314 315 314 310 308 313 313 294 261 277 275 265 265 288 286 292 336 349 343 331 237 248 241 253 249 251 259 269 261 256 240 269 275 283 293 275 282 257 259 88 94 99 120 105
278 274 276 280 283 293 288 293 297 307 311 317 310 305 300 304 301 304 315 285 251 252 253 275 280 283 323 334 12 342 266 219 220 240 220 226 257 233 249 247 257 251 256 265 244 240 291 191 151 75 312 285 109 111
278 276 276 274 277 282 288 288 294 303 312 318 308 305 299 296 281 268 303 286 270 229 263 249 268 301 312 316 307 336 286 240 251 241 210 146 209 237 254 210 275 289 278 308 266 277 257 11 165 165 244 136 114 118
276 275 273 275 277 277 286 286 294 302 318 323 316 309 264 289 311 309 307 225 193 225 246 260 264 261 293 295 294 300 250 257 267 216 161 192 307 273 235 213 225 212 184 338 303 218 174 8 252 232 259 129 116 119
274 274 277 276 271 280 275 280 291 302 323 333 289 274 292 313 311 267 244 201 182 241 227 240 241 257 277 229 284 254 282 256 262 166 207 97 322 257 214 219 241 275 230 202 140 142 214 219 243 95 103 111 120 126
271 267 272 268 263 266 264 272 275 291 295 287 285 287 301 272 238 254 230 184 205 251 229 247 279 292 296 231 201 205 265 287 277 308 117 98 210 222 245 244 261 31 69 150 149 143 129 88 103 111 117 118 118 122
261 266 263 265 265 257 260 271 266 285 291 289 270 269 227 234 245 234 224 201 228 201 240 268 291 307 287 241 233 226 246 250 314 262 90 4 152 139 25 45 52 47 46 57 60 59 66 123 118 120 111 111 114 119
256 254 246 255 266 263 260 233 247 254 278 246 219 266 218 214 230 218 227 277 269 263 304 298 292 281 291 279 229 264 252 288 313 25 59 153 136 97 67 63 56 44 65 67 62 62 72 92 101 107 110 118 124 122
252 246 258 264 267 248 216 213 205 220 202 250 238 235 234 248 281 286 257 270 356 342 297 303 302 242 261 259 236 301 250 159 87 296 338 21 69 78 64 64 61 58 66 76 93 96 95 88 93 100 108 112 115 118
251 267 270 263 229 194 192 193 203 205 248 236 239 267 273 297 296 305 275 314 311 323 304 287 278 279 275 316 299 3 332 359 264 346 318 62 95 75 75 72 67 72 80 82 85 106 107 106 97 101 116 121 121 132
247 253 247 206 178 178 180 185 164 214 236 237 239 242 248 260 271 274 278 295 352 327 279 301 301 357 301 13 3 320 296 254 266 336 353 101 91 86 80 76 75 74 77 84 81 83 93 120 125 108 97 117 132 137
228 221 195 167 164 172 190 197 224 237 238 244 263 269 277 279 282 289 10 85 92 314 301 236 281 309 324 7 293 272 285 304 318 299 286 140 99 100 96 83 88 90 82 78 77 76 101 89 92 102 83 74 109 135
222 220 190 179 174 165 198 206 214 262 251 245 250 263 268 272 275 290 293 289 292 256 285 319 258 337 40 222 229 200 175 331 310 303 191 129 119 99 92 79 70 66 81 75 77 60 70 60 49 80 71 53 65 28
218 193 183 184 179 170 250 240 208 249 273 265 273 261 265 257 267 272 269 198 242 232 244 215 226 220 254 305 327 26 137 101 63 185 150 149 106 81 76 77 89 91 87 80 71 92 93 72 48 37 37 66 43 61
207 185 183 190 194 220 262 278 224 244 256 264 271 276 279 278 247 240 251 203 175 194 239 261 275 333 280 319 358 6 63 76 179 143 134 117 137 21 108 122 64 76 77 68 96 87 80 70 61 47 46 91 94 103
183 176 178 179 188 230 256 243 247 308 286 268 283 281 282 277 269 272 272 206 210 226 242 263 247 255 290 319 27 49 88 43 49 69 71 49 83 42 98 107 109 87 70 78 96 95 60 28 1 135 135 147 154 132
161 174 195 185 224 235 260 237 244 235 267 272 247 224 237 242 254 264 260 224 239 250 256 258 262 217 213 290 10 4 190 123 106 60 51 108 110 68 73 101 115 77 76 95 107 73 40 54 76 75 74 78 90 122
147 182 226 210 210 253 248 223 224 230 220 234 267 280 279 171 291 267 260 253 274 281 272 247 203 232 274 248 237 235 225 141 150 96 57 140 110 95 61 61 60 95 113 127 94 52 57 91 88 83 82 86 90 95
194 232 225 237 230 229 255 236 231 239 253 264 269 260 175 188 86 314 292 277 237 282 273 191 195 232 255 248 222 162 171 167 201 197 110 104 98 120 114 63 73 80 116 120 84 62 101 98 94 84 79 89 84 85
220 221 212 214 219 235 230 238 189 212 236 252 253 250 135 178 213 242 254 251 333 268 242 249 272 244 224 37 352 213 194 183 229 220 326 263 229 37 154 174 98 81 315 14 59 98 112 107 114 100 99 93 80 67
235 243 214 237 269 286 260 278 288 288 239 239 246 133 95 250 211 43 42 45 287 262 184 250 34 17 92 24 279 167 230 275 225 175 161 131 109 75 102 164 99 124 85 71 89 127 128 124 116 121 102 92 96 87
243 260 234 244 228 255 275 280 279 251 246 258 140 16 309 25 86 185 173 196 267 241 338 75 333 20 148 140 165 113 175 168 175 125 126 136 135 130 122 142 147 139 122 104 82 115 120 130 115 103 102 111 95 104
232 231 233 259 256 233 235 258 258 268 341 335 215 153 165 201 218 259 319 244 247 274 256 283 219 227 104 167 189 211 191 204 257 205 158 154 151 136 147 133 137 135 144 130 117 123 122 122 130 128 109 99 114 132
242 231 245 248 238 245 248 245 256 258 270 346 53 155 206 128 298 218 222 261 235 203 331 298 248 229 251 228 216 196 250 196 112 162 151 155 155 148 139 148 115 128 143 152 143 144 140 128 130 137 144 160 134 193
230 225 228 242 249 245 244 250 255 262 277 280 272 199 192 167 209 222 205 236 242 261 240 288 299 251 257 233 249 216 205 217 201 148 186 185 156 149 153 142 137 140 149 136 142 147 151 147 136 160 143 209 129 98
241 235 229 228 240 258 280 228 245 271 280 275 259 274 254 194 213 254 225 215 233 241 255 236 255 229 239 207 175 183 135 149 182 200 160 157 206 170 156 154 154 150 151 148 154 168 180 192 185 194 142 142 165 198
221 238 244 253 223 229 229 228 256 240 231 251 267 262 252 237 241 244 221 221 223 226 243 267 254 228 226 216 220 215 159 137 143 166 179 156 144 153 153 159 157 148 155 157 153 170 198 257 175 122 175 178 193 184